User: anonymous   Login
Location: Ab? ar R?sh Ba?r?
(24.1861°N, 32.8847°E)
Time: 22:49:18
(UTC+00:00)
Language:

GPS 2-12 Rocket1 - Orbit

View from above orbital plane
View from above orbital plane
View from above satellite
View from above satellite

Ground track
Ground track

The orbit data is extracted from the following two-line orbital elements,

1 21891U 92009B   22026.47165802  .00001009  00000-0  70174-4 0  9999
2 21891  19.9974 322.1406 0046542 358.0440   1.9794 14.83558196595734
Epoch (UTC): 26 January 2022 11:19:11
Eccentricity: 0.0046542
inclination: 19.9974°
perigee height: 585 km
apogee height: 650 km
right ascension of ascending node: 322.1406°
argument of perigee: 358.0440°
revolutions per day: 14.83558196
mean anomaly at epoch: 1.9794°
orbit number at epoch: 59573

The dashed part of the orbit path shows where the satellite is in the earth's shadow,  

DLR